Time,TemperatureF,DewpointF,PressureIn,WindDirection,WindDirectionDegrees,WindSpeedMPH,WindSpeedGustMPH,Humidity,HourlyPrecipIn,Conditions,Clouds,dailyrainin,SoftwareType,DateUTC
2013-04-25 00:05:00,37.6,32.6,30.18,South,174,0.0,2.0,82,0.00,RA,,0.00,WeatherDisplay:10.37,2013-04-25 05:05:00,
2013-04-25 00:10:00,37.6,32.6,30.18,South,174,0.0,0.0,82,0.00,CLR,,0.00,WeatherDisplay:10.37,2013-04-25 05:10:00,
2013-04-25 00:15:00,37.8,32.8,30.18,South,174,1.0,3.0,82,0.00,CLR,,0.00,WeatherDisplay:10.37,2013-04-25 05:15:00,
2013-04-25 00:20:00,37.9,32.9,30.17,South,174,0.0,0.0,82,0.00,CLR,,0.00,WeatherDisplay:10.37,2013-04-25 05:20:00,
2013-04-25 00:25:00,38.2,33.2,30.18,South,174,0.0,2.0,82,0.00,CLR,,0.00,WeatherDisplay:10.37,2013-04-25 05:25:00,
2013-04-25 00:30:00,38.2,33.2,30.17,South,174,0.0,0.0,82,0.00,CLR,,0.00,WeatherDisplay:10.37,2013-04-25 05:30:00,
2013-04-25 00:35:00,38.2,33.2,30.17,South,174,0.0,2.0,82,0.00,CLR,,0.00,WeatherDisplay:10.37,2013-04-25 05:35:00,
2013-04-25 00:40:00,38.3,33.0,30.17,South,174,0.0,2.0,81,0.00,CLR,,0.00,WeatherDisplay:10.37,2013-04-25 05:40:00,
2013-04-25 00:45:00,38.3,33.0,30.17,South,174,0.0,2.0,81,0.00,CLR,,0.00,WeatherDisplay:10.37,2013-04-25 05:45:00,
2013-04-25 00:50:00,38.3,33.0,30.17,South,174,0.0,2.0,81,0.00,CLR,,0.00,WeatherDisplay:10.37,2013-04-25 05:50:00,
2013-04-25 00:55:00,38.3,33.0,30.17,South,174,0.0,2.0,81,0.00,CLR,,0.00,WeatherDisplay:10.37,2013-04-25 05:55:00,
2013-04-25 01:00:00,38.3,33.0,30.16,South,174,1.0,3.0,81,0.00,CLR,,0.00,WeatherDisplay:10.37,2013-04-25 06:00:00,
2013-04-25 01:05:00,38.3,33.0,30.16,South,174,0.0,2.0,81,0.00,CLR,,0.00,WeatherDisplay:10.37,2013-04-25 06:05:00,
2013-04-25 01:10:00,38.3,33.0,30.16,South,186,1.0,5.0,81,0.00,CLR,,0.00,WeatherDisplay:10.37,2013-04-25 06:10:00,
2013-04-25 01:15:00,38.3,32.7,30.16,SSW,196,0.0,2.0,80,0.00,CLR,,0.00,WeatherDisplay:10.37,2013-04-25 06:15:00,
2013-04-25 01:20:00,38.5,32.9,30.16,SSW,201,1.0,3.0,80,0.00,CLR,,0.00,WeatherDisplay:10.37,2013-04-25 06:20:00,
2013-04-25 01:30:00,38.5,32.6,30.17,SSW,201,1.0,3.0,79,0.00,CLR,,0.00,WeatherDisplay:10.37,2013-04-25 06:30:00,
2013-04-25 01:35:00,38.6,32.6,30.17,SSW,202,0.0,6.0,79,0.00,CLR,,0.00,WeatherDisplay:10.37,2013-04-25 06:35:00,
2013-04-25 01:40:00,38.6,32.6,30.17,SSW,208,1.0,6.0,79,0.00,CLR,,0.00,WeatherDisplay:10.37,2013-04-25 06:40:00,
2013-04-25 01:45:00,38.8,32.8,30.17,SSW,212,0.0,5.0,79,0.00,CLR,,0.00,WeatherDisplay:10.37,2013-04-25 06:45:00,
2013-04-25 01:50:00,38.8,32.8,30.17,SSW,198,1.0,5.0,79,0.00,CLR,,0.00,WeatherDisplay:10.37,2013-04-25 06:50:00,
2013-04-25 01:55:00,38.8,32.8,30.16,SSE,164,2.0,3.0,79,0.00,CLR,,0.00,WeatherDisplay:10.37,2013-04-25 06:55:00,
2013-04-25 02:00:00,38.6,32.6,30.16,SSE,162,0.0,0.0,79,0.00,CLR,,0.00,WeatherDisplay:10.37,2013-04-25 07:00:00,
2013-04-25 02:05:00,38.5,32.6,30.16,SSE,165,0.0,2.0,79,0.00,CLR,,0.00,WeatherDisplay:10.37,2013-04-25 07:05:00,
2013-04-25 02:10:00,38.4,32.5,30.15,SSE,165,0.0,2.0,79,0.00,CLR,,0.00,WeatherDisplay:10.37,2013-04-25 07:10:00,
2013-04-25 02:15:00,38.3,32.4,30.15,SSE,165,0.0,5.0,79,0.00,CLR,,0.00,WeatherDisplay:10.37,2013-04-25 07:15:00,
2013-04-25 02:20:00,38.3,32.4,30.15,SSE,163,0.0,5.0,79,0.00,CLR,,0.00,WeatherDisplay:10.37,2013-04-25 07:20:00,
2013-04-25 02:25:00,38.3,32.4,30.15,SSE,161,0.0,2.0,79,0.00,CLR,,0.00,WeatherDisplay:10.37,2013-04-25 07:25:00,
2013-04-25 02:30:00,38.3,32.4,30.15,SSE,161,0.0,5.0,79,0.00,CLR,,0.00,WeatherDisplay:10.37,2013-04-25 07:30:00,
2013-04-25 02:35:00,38.2,32.3,30.15,SSE,161,1.0,3.0,79,0.00,CLR,,0.00,WeatherDisplay:10.37,2013-04-25 07:35:00,
2013-04-25 02:40:00,38.2,32.3,30.15,SSE,161,0.0,3.0,79,0.00,CLR,,0.00,WeatherDisplay:10.37,2013-04-25 07:40:00,
2013-04-25 02:45:00,38.2,32.3,30.15,SSE,161,0.0,2.0,79,0.00,CLR,,0.00,WeatherDisplay:10.37,2013-04-25 07:45:00,
2013-04-25 02:50:00,38.2,32.3,30.15,SSE,161,1.0,3.0,79,0.00,CLR,,0.00,WeatherDisplay:10.37,2013-04-25 07:50:00,
2013-04-25 02:55:00,38.2,32.3,30.15,SSE,161,0.0,2.0,79,0.00,CLR,,0.00,WeatherDisplay:10.37,2013-04-25 07:55:00,
2013-04-25 03:00:00,38.2,32.3,30.15,SSE,161,0.0,2.0,79,0.00,CLR,,0.00,WeatherDisplay:10.37,2013-04-25 08:00:00,
2013-04-25 03:05:00,38.2,32.3,30.15,SSE,168,0.0,5.0,79,0.00,CLR,,0.00,WeatherDisplay:10.37,2013-04-25 08:05:00,
2013-04-25 03:10:00,38.3,32.0,30.15,West,263,1.0,5.0,78,0.00,CLR,,0.00,WeatherDisplay:10.37,2013-04-25 08:10:00,
2013-04-25 03:20:00,38.5,32.2,30.15,SSW,206,3.0,5.0,78,0.00,CLR,,0.00,WeatherDisplay:10.37,2013-04-25 08:20:00,
2013-04-25 03:25:00,38.5,32.2,30.15,SSW,199,1.0,5.0,78,0.00,CLR,,0.00,WeatherDisplay:10.37,2013-04-25 08:25:00,
2013-04-25 03:30:00,38.5,32.2,30.15,SSW,198,1.0,6.0,78,0.00,CLR,,0.00,WeatherDisplay:10.37,2013-04-25 08:30:00,
2013-04-25 03:35:00,38.6,32.3,30.15,SSW,202,2.0,6.0,78,0.00,CLR,,0.00,WeatherDisplay:10.37,2013-04-25 08:35:00,
2013-04-25 03:40:00,38.6,32.3,30.15,SSW,192,3.0,6.0,78,0.00,CLR,,0.00,WeatherDisplay:10.37,2013-04-25 08:40:00,
2013-04-25 03:45:00,38.6,32.3,30.15,SSW,198,2.0,8.0,78,0.00,CLR,,0.00,WeatherDisplay:10.37,2013-04-25 08:45:00,
2013-04-25 03:50:00,38.5,32.2,30.15,SSW,198,3.0,8.0,78,0.00,CLR,,0.00,WeatherDisplay:10.37,2013-04-25 08:50:00,
2013-04-25 04:00:00,38.3,32.0,30.15,SSE,166,0.0,8.0,78,0.00,CLR,,0.00,WeatherDisplay:10.37,2013-04-25 09:00:00,
2013-04-25 04:05:00,38.3,32.0,30.15,SSW,209,1.0,5.0,78,0.00,CLR,,0.00,WeatherDisplay:10.37,2013-04-25 09:05:00,
2013-04-25 04:10:00,38.3,32.0,30.15,SSW,206,3.0,6.0,78,0.00,CLR,,0.00,WeatherDisplay:10.37,2013-04-25 09:10:00,
2013-04-25 04:15:00,38.3,31.7,30.15,SSW,194,1.0,5.0,77,0.00,CLR,,0.00,WeatherDisplay:10.37,2013-04-25 09:15:00,
2013-04-25 04:20:00,38.3,31.7,30.15,SSW,192,3.0,6.0,77,0.00,CLR,,0.00,WeatherDisplay:10.37,2013-04-25 09:20:00,
2013-04-25 04:25:00,38.3,31.7,30.15,SSE,166,2.0,6.0,77,0.00,CLR,,0.00,WeatherDisplay:10.37,2013-04-25 09:25:00,
2013-04-25 04:30:00,38.5,31.9,30.15,SSE,160,3.0,5.0,77,0.00,CLR,,0.00,WeatherDisplay:10.37,2013-04-25 09:30:00,
2013-04-25 04:35:00,38.3,31.7,30.15,South,177,2.0,5.0,77,0.00,CLR,,0.00,WeatherDisplay:10.37,2013-04-25 09:35:00,
2013-04-25 04:40:00,38.3,31.7,30.15,SSW,192,1.0,8.0,77,0.00,CLR,,0.00,WeatherDisplay:10.37,2013-04-25 09:40:00,
2013-04-25 04:45:00,38.3,31.7,30.15,South,191,3.0,5.0,77,0.00,CLR,,0.00,WeatherDisplay:10.37,2013-04-25 09:45:00,
2013-04-25 04:50:00,38.3,31.7,30.15,South,179,1.0,5.0,77,0.00,CLR,,0.00,WeatherDisplay:10.37,2013-04-25 09:50:00,
2013-04-25 05:00:00,38.3,31.7,30.15,South,182,0.0,8.0,77,0.00,CLR,,0.00,WeatherDisplay:10.37,2013-04-25 10:00:00,
2013-04-25 05:10:00,38.3,31.7,30.15,South,184,2.0,15.0,77,0.00,CLR,,0.00,WeatherDisplay:10.37,2013-04-25 10:10:00,
2013-04-25 05:15:00,38.6,31.6,30.15,South,186,3.0,9.0,76,0.00,CLR,,0.00,WeatherDisplay:10.37,2013-04-25 10:15:00,
2013-04-25 05:20:00,38.8,31.9,30.14,SSE,164,2.0,5.0,76,0.00,CLR,,0.00,WeatherDisplay:10.37,2013-04-25 10:20:00,
2013-04-25 05:25:00,38.9,31.6,30.14,SSE,157,2.0,9.0,75,0.00,CLR,,0.00,WeatherDisplay:10.37,2013-04-25 10:25:00,
2013-04-25 05:30:00,39.1,31.8,30.14,South,188,3.0,9.0,75,0.00,CLR,,0.00,WeatherDisplay:10.37,2013-04-25 10:30:00,
2013-04-25 05:35:00,39.2,31.6,30.14,South,188,1.0,6.0,74,0.00,SCT,,0.00,WeatherDisplay:10.37,2013-04-25 10:35:00,
2013-04-25 05:40:00,39.2,31.9,30.14,SSE,159,0.0,5.0,75,0.00,SCT,,0.00,WeatherDisplay:10.37,2013-04-25 10:40:00,
2013-04-25 05:45:00,39.2,31.9,30.15,SSE,151,1.0,6.0,75,0.00,SCT,,0.00,WeatherDisplay:10.37,2013-04-25 10:45:00,
2013-04-25 05:55:00,39.2,31.6,30.15,South,187,2.0,5.0,74,0.00,BKN,,0.00,WeatherDisplay:10.37,2013-04-25 10:55:00,
2013-04-25 06:00:00,39.2,31.6,30.15,South,170,3.0,8.0,74,0.00,BKN,,0.00,WeatherDisplay:10.37,2013-04-25 11:00:00,
2013-04-25 06:05:00,39.1,31.5,30.15,SSE,163,3.0,5.0,74,0.00,BKN,,0.00,WeatherDisplay:10.37,2013-04-25 11:05:00,
2013-04-25 06:10:00,39.1,31.8,30.15,South,176,1.0,5.0,75,0.00,BKN,,0.00,WeatherDisplay:10.37,2013-04-25 11:10:00,
2013-04-25 06:15:00,39.1,31.8,30.15,South,189,3.0,6.0,75,0.00,SCT,,0.00,WeatherDisplay:10.37,2013-04-25 11:15:00,
2013-04-25 06:20:00,39.2,31.6,30.15,South,181,1.0,6.0,74,0.00,SCT,,0.00,WeatherDisplay:10.37,2013-04-25 11:20:00,
2013-04-25 06:25:00,39.3,31.7,30.15,SSE,164,3.0,9.0,74,0.00,SCT,,0.00,WeatherDisplay:10.37,2013-04-25 11:25:00,
2013-04-25 06:30:00,39.3,31.7,30.15,South,173,1.0,5.0,74,0.00,SCT,,0.00,WeatherDisplay:10.37,2013-04-25 11:30:00,
2013-04-25 06:35:00,39.3,31.7,30.15,South,184,3.0,6.0,74,0.00,BKN,,0.00,WeatherDisplay:10.37,2013-04-25 11:35:00,
2013-04-25 06:40:00,39.3,31.7,30.15,SSE,147,1.0,3.0,74,0.00,BKN,,0.00,WeatherDisplay:10.37,2013-04-25 11:40:00,
2013-04-25 06:45:00,39.3,31.7,30.15,SE,146,1.0,8.0,74,0.00,BKN,,0.00,WeatherDisplay:10.37,2013-04-25 11:45:00,
2013-04-25 06:50:00,39.5,31.9,30.15,South,181,2.0,5.0,74,0.00,BKN,,0.00,WeatherDisplay:10.37,2013-04-25 11:50:00,
2013-04-25 06:55:00,39.8,32.2,30.15,SSW,207,2.0,6.0,74,0.00,SCT,,0.00,WeatherDisplay:10.37,2013-04-25 11:55:00,
2013-04-25 07:00:00,40.1,32.5,30.15,SSW,200,5.0,6.0,74,0.00,SCT,,0.00,WeatherDisplay:10.37,2013-04-25 12:00:00,
2013-04-25 07:05:00,40.5,32.5,30.15,SSE,164,1.0,6.0,73,0.00,SCT,,0.00,WeatherDisplay:10.37,2013-04-25 12:05:00,
2013-04-25 07:10:00,40.9,32.5,30.15,SSE,168,3.0,6.0,72,0.00,SCT,,0.00,WeatherDisplay:10.37,2013-04-25 12:10:00,
2013-04-25 07:20:00,41.8,32.7,30.16,WSW,253,3.0,8.0,70,0.00,CLR,,0.00,WeatherDisplay:10.37,2013-04-25 12:20:00,
2013-04-25 07:25:00,41.9,32.8,30.16,SW,235,7.0,8.0,70,0.00,CLR,,0.00,WeatherDisplay:10.37,2013-04-25 12:25:00,
2013-04-25 07:30:00,42.1,32.7,30.16,SW,220,1.0,8.0,69,0.00,CLR,,0.00,WeatherDisplay:10.37,2013-04-25 12:30:00,
2013-04-25 07:35:00,42.1,32.7,30.16,SW,230,3.0,8.0,69,0.00,SCT,,0.00,WeatherDisplay:10.37,2013-04-25 12:35:00,
2013-04-25 07:40:00,42.1,32.7,30.17,SW,227,3.0,6.0,69,0.00,SCT,,0.00,WeatherDisplay:10.37,2013-04-25 12:40:00,
2013-04-25 07:45:00,42.2,32.8,30.17,SSW,206,9.0,12.0,69,0.00,SCT,,0.00,WeatherDisplay:10.37,2013-04-25 12:45:00,
2013-04-25 07:50:00,42.5,33.1,30.16,SW,221,5.0,8.0,69,0.00,SCT,,0.00,WeatherDisplay:10.37,2013-04-25 12:50:00,
2013-04-25 07:55:00,42.9,33.4,30.17,SW,231,6.0,14.0,69,0.00,BKN,,0.00,WeatherDisplay:10.37,2013-04-25 12:55:00,
2013-04-25 08:00:00,43.2,33.7,30.17,SW,232,7.0,20.0,69,0.00,BKN,,0.00,WeatherDisplay:10.37,2013-04-25 13:00:00,
2013-04-25 08:05:00,43.5,34.0,30.17,SW,234,0.0,9.0,69,0.00,BKN,,0.00,WeatherDisplay:10.37,2013-04-25 13:05:00,
2013-04-25 08:10:00,43.8,33.9,30.17,WSW,250,6.0,14.0,68,0.00,BKN,,0.00,WeatherDisplay:10.37,2013-04-25 13:10:00,
2013-04-25 08:15:00,44.1,34.2,30.18,West,259,10.0,14.0,68,0.00,SCT,,0.00,WeatherDisplay:10.37,2013-04-25 13:15:00,
2013-04-25 08:20:00,44.2,33.9,30.18,WSW,253,8.0,17.0,67,0.00,SCT,,0.00,WeatherDisplay:10.37,2013-04-25 13:20:00,
2013-04-25 08:25:00,44.5,34.2,30.18,WSW,251,10.0,18.0,67,0.00,SCT,,0.00,WeatherDisplay:10.37,2013-04-25 13:25:00,
2013-04-25 08:30:00,44.5,33.8,30.18,West,263,7.0,20.0,66,0.00,SCT,,0.00,WeatherDisplay:10.37,2013-04-25 13:30:00,
2013-04-25 08:35:00,44.7,34.4,30.18,West,263,6.0,15.0,67,0.00,CLR,,0.00,WeatherDisplay:10.37,2013-04-25 13:35:00,
2013-04-25 08:40:00,45.1,35.5,30.18,West,269,5.0,9.0,69,0.00,CLR,,0.00,WeatherDisplay:10.37,2013-04-25 13:40:00,
2013-04-25 08:45:00,45.2,35.3,30.19,West,277,12.0,18.0,68,0.00,CLR,,0.00,WeatherDisplay:10.37,2013-04-25 13:45:00,
2013-04-25 08:50:00,45.4,35.1,30.19,West,278,13.0,25.0,67,0.00,CLR,,0.00,WeatherDisplay:10.37,2013-04-25 13:50:00,
2013-04-25 08:55:00,45.7,35.4,30.19,WNW,283,17.0,20.0,67,0.00,CLR,,0.00,WeatherDisplay:10.37,2013-04-25 13:55:00,
2013-04-25 09:00:00,45.9,34.0,30.19,West,276,22.0,36.0,63,0.00,CLR,,0.00,WeatherDisplay:10.37,2013-04-25 14:00:00,
2013-04-25 09:05:00,45.9,33.6,30.19,West,275,15.0,23.0,62,0.00,CLR,,0.00,WeatherDisplay:10.37,2013-04-25 14:05:00,
2013-04-25 09:10:00,46.1,33.4,30.20,WNW,287,10.0,17.0,61,0.00,CLR,,0.00,WeatherDisplay:10.37,2013-04-25 14:10:00,
2013-04-25 09:15:00,46.4,33.3,30.20,WNW,292,14.0,21.0,60,0.00,CLR,,0.00,WeatherDisplay:10.37,2013-04-25 14:15:00,
2013-04-25 09:20:00,46.4,31.5,30.20,WNW,290,14.0,29.0,56,0.00,CLR,,0.00,WeatherDisplay:10.37,2013-04-25 14:20:00,
2013-04-25 09:30:00,47.0,32.1,30.21,WNW,284,10.0,23.0,56,0.00,CLR,,0.00,WeatherDisplay:10.37,2013-04-25 14:30:00,
2013-04-25 09:35:00,47.1,31.3,30.21,West,280,21.0,25.0,54,0.00,CLR,,0.00,WeatherDisplay:10.37,2013-04-25 14:35:00,
2013-04-25 09:40:00,47.3,31.9,30.21,West,277,8.0,24.0,55,0.00,CLR,,0.00,WeatherDisplay:10.37,2013-04-25 14:40:00,
2013-04-25 09:45:00,47.4,31.6,30.22,West,277,9.0,24.0,54,0.00,CLR,,0.00,WeatherDisplay:10.37,2013-04-25 14:45:00,
2013-04-25 09:50:00,47.7,30.9,30.22,WNW,284,20.0,27.0,52,0.00,CLR,,0.00,WeatherDisplay:10.37,2013-04-25 14:50:00,
2013-04-25 09:55:00,47.9,31.6,30.22,WNW,286,10.0,24.0,53,0.00,CLR,,0.00,WeatherDisplay:10.37,2013-04-25 14:55:00,
2013-04-25 10:00:00,47.9,30.1,30.22,WNW,286,14.0,23.0,50,0.00,CLR,,0.00,WeatherDisplay:10.37,2013-04-25 15:00:00,
2013-04-25 10:05:00,48.2,30.9,30.23,WNW,292,15.0,29.0,51,0.00,CLR,,0.00,WeatherDisplay:10.37,2013-04-25 15:05:00,
2013-04-25 10:10:00,48.5,30.2,30.23,WNW,283,12.0,23.0,49,0.00,CLR,,0.00,WeatherDisplay:10.37,2013-04-25 15:10:00,
2013-04-25 10:15:00,48.3,28.5,30.23,NW,304,20.0,23.0,46,0.00,CLR,,0.00,WeatherDisplay:10.37,2013-04-25 15:15:00,
2013-04-25 10:20:00,48.2,28.4,30.23,WNW,301,15.0,24.0,46,0.00,CLR,,0.00,WeatherDisplay:10.37,2013-04-25 15:20:00,
2013-04-25 10:25:00,48.3,26.2,30.24,WNW,286,16.0,18.0,42,0.00,CLR,,0.00,WeatherDisplay:10.37,2013-04-25 15:25:00,
2013-04-25 10:30:00,48.5,26.4,30.24,WNW,283,13.0,25.0,42,0.00,CLR,,0.00,WeatherDisplay:10.37,2013-04-25 15:30:00,
2013-04-25 10:40:00,48.9,27.3,30.24,WNW,284,20.0,29.0,43,0.00,CLR,,0.00,WeatherDisplay:10.37,2013-04-25 15:40:00,
2013-04-25 10:45:00,48.6,26.5,30.25,WNW,284,16.0,36.0,42,0.00,CLR,,0.00,WeatherDisplay:10.37,2013-04-25 15:45:00,
2013-04-25 10:55:00,48.6,27.7,30.25,WNW,299,22.0,23.0,44,0.00,CLR,,0.00,WeatherDisplay:10.37,2013-04-25 15:55:00,
2013-04-25 11:00:00,48.6,27.1,30.25,West,278,13.0,23.0,43,0.00,CLR,,0.00,WeatherDisplay:10.37,2013-04-25 16:00:00,
2013-04-25 11:05:00,49.1,28.7,30.26,West,269,14.0,29.0,45,0.00,CLR,,0.00,WeatherDisplay:10.37,2013-04-25 16:05:00,
2013-04-25 11:10:00,49.4,28.9,30.26,West,278,10.0,17.0,45,0.00,CLR,,0.00,WeatherDisplay:10.37,2013-04-25 16:10:00,
2013-04-25 11:15:00,48.9,27.9,30.26,West,277,13.0,30.0,44,0.00,SCT,,0.00,WeatherDisplay:10.37,2013-04-25 16:15:00,
2013-04-25 11:20:00,48.5,27.5,30.26,West,279,22.0,30.0,44,0.00,SCT,,0.00,WeatherDisplay:10.37,2013-04-25 16:20:00,
2013-04-25 11:30:00,48.8,26.7,30.26,West,274,17.0,24.0,42,0.00,SCT,,0.00,WeatherDisplay:10.37,2013-04-25 16:30:00,
2013-04-25 11:35:00,48.6,27.6,30.26,West,271,10.0,27.0,44,0.00,SCT,,0.00,WeatherDisplay:10.37,2013-04-25 16:35:00,
2013-04-25 11:40:00,48.6,28.7,30.26,West,278,5.0,36.0,46,0.00,SCT,,0.00,WeatherDisplay:10.37,2013-04-25 16:40:00,
2013-04-25 11:45:00,48.9,29.5,30.26,WNW,290,7.0,15.0,47,0.00,SCT,,0.00,WeatherDisplay:10.37,2013-04-25 16:45:00,
2013-04-25 11:50:00,49.1,28.7,30.26,WNW,295,9.0,25.0,45,0.00,SCT,,0.00,WeatherDisplay:10.37,2013-04-25 16:50:00,
2013-04-25 11:55:00,49.2,27.6,30.26,WNW,285,16.0,20.0,43,0.00,CLR,,0.00,WeatherDisplay:10.37,2013-04-25 16:55:00,
2013-04-25 12:00:00,48.8,26.1,30.26,West,274,21.0,25.0,41,0.00,CLR,,0.00,WeatherDisplay:10.37,2013-04-25 17:00:00,
2013-04-25 12:05:00,48.5,23.4,30.26,WNW,287,23.0,35.0,37,0.00,CLR,,0.00,WeatherDisplay:10.37,2013-04-25 17:05:00,
2013-04-25 12:10:00,48.8,24.9,30.26,WNW,290,16.0,24.0,39,0.00,CLR,,0.00,WeatherDisplay:10.37,2013-04-25 17:10:00,
2013-04-25 12:15:00,49.2,28.2,30.26,WNW,292,12.0,23.0,44,0.00,CLR,,0.00,WeatherDisplay:10.37,2013-04-25 17:15:00,
2013-04-25 12:20:00,49.5,25.5,30.27,WNW,297,24.0,25.0,39,0.00,CLR,,0.00,WeatherDisplay:10.37,2013-04-25 17:20:00,
2013-04-25 12:25:00,49.4,26.7,30.27,WNW,289,7.0,18.0,41,0.00,CLR,,0.00,WeatherDisplay:10.37,2013-04-25 17:25:00,
2013-04-25 12:30:00,49.9,27.7,30.27,WNW,286,18.0,24.0,42,0.00,CLR,,0.00,WeatherDisplay:10.37,2013-04-25 17:30:00,
2013-04-25 12:35:00,49.9,26.5,30.27,WNW,282,15.0,21.0,40,0.00,CLR,,0.00,WeatherDisplay:10.37,2013-04-25 17:35:00,
2013-04-25 12:40:00,50.2,27.4,30.27,WNW,282,18.0,27.0,41,0.00,CLR,,0.00,WeatherDisplay:10.37,2013-04-25 17:40:00,
2013-04-25 12:45:00,50.5,27.7,30.27,WNW,287,14.0,20.0,41,0.00,CLR,,0.00,WeatherDisplay:10.37,2013-04-25 17:45:00,
2013-04-25 12:55:00,50.0,25.4,30.27,West,278,22.0,29.0,38,0.00,CLR,,0.00,WeatherDisplay:10.37,2013-04-25 17:55:00,
2013-04-25 13:00:00,49.9,25.3,30.27,West,277,18.0,30.0,38,0.00,CLR,,0.00,WeatherDisplay:10.37,2013-04-25 18:00:00,
2013-04-25 13:05:00,50.2,25.5,30.26,West,280,14.0,24.0,38,0.00,CLR,,0.00,WeatherDisplay:10.37,2013-04-25 18:05:00,
2013-04-25 13:10:00,50.8,27.9,30.26,WNW,283,13.0,20.0,41,0.00,CLR,,0.00,WeatherDisplay:10.37,2013-04-25 18:10:00,
2013-04-25 13:15:00,51.3,28.4,30.26,WNW,283,10.0,27.0,41,0.00,CLR,,0.00,WeatherDisplay:10.37,2013-04-25 18:15:00,
2013-04-25 13:20:00,51.1,27.6,30.27,WNW,282,21.0,26.0,40,0.00,CLR,,0.00,WeatherDisplay:10.37,2013-04-25 18:20:00,
2013-04-25 13:25:00,50.8,27.3,30.27,WNW,282,15.0,30.0,40,0.00,CLR,,0.00,WeatherDisplay:10.37,2013-04-25 18:25:00,
2013-04-25 13:30:00,50.9,28.6,30.26,WNW,290,7.0,20.0,42,0.00,CLR,,0.00,WeatherDisplay:10.37,2013-04-25 18:30:00,
2013-04-25 13:40:00,51.4,26.6,30.26,WNW,291,20.0,23.0,38,0.00,CLR,,0.00,WeatherDisplay:10.37,2013-04-25 18:40:00,
2013-04-25 13:45:00,51.6,26.8,30.27,WNW,291,13.0,21.0,38,0.00,CLR,,0.00,WeatherDisplay:10.37,2013-04-25 18:45:00,
2013-04-25 13:55:00,51.8,28.9,30.26,West,270,8.0,27.0,41,0.00,CLR,,0.00,WeatherDisplay:10.37,2013-04-25 18:55:00,
2013-04-25 14:00:00,52.2,29.2,30.26,West,279,10.0,18.0,41,0.00,CLR,,0.00,WeatherDisplay:10.37,2013-04-25 19:00:00,
2013-04-25 14:05:00,52.2,24.7,30.27,WNW,293,12.0,20.0,34,0.00,CLR,,0.00,WeatherDisplay:10.37,2013-04-25 19:05:00,
2013-04-25 14:10:00,52.3,26.1,30.27,WNW,298,22.0,27.0,36,0.00,CLR,,0.00,WeatherDisplay:10.37,2013-04-25 19:10:00,
2013-04-25 14:15:00,52.5,28.8,30.27,NW,305,14.0,20.0,40,0.00,SCT,,0.00,WeatherDisplay:10.37,2013-04-25 19:15:00,
2013-04-25 14:20:00,52.2,26.0,30.27,WNW,292,17.0,23.0,36,0.00,SCT,,0.00,WeatherDisplay:10.37,2013-04-25 19:20:00,
2013-04-25 14:25:00,52.2,27.3,30.27,West,270,15.0,23.0,38,0.00,SCT,,0.00,WeatherDisplay:10.37,2013-04-25 19:25:00,
2013-04-25 14:30:00,52.6,28.3,30.27,West,269,18.0,21.0,39,0.00,SCT,,0.00,WeatherDisplay:10.37,2013-04-25 19:30:00,
2013-04-25 14:35:00,52.8,28.5,30.27,West,275,5.0,21.0,39,0.00,CLR,,0.00,WeatherDisplay:10.37,2013-04-25 19:35:00,
2013-04-25 14:40:00,52.8,28.5,30.27,West,279,16.0,18.0,39,0.00,CLR,,0.00,WeatherDisplay:10.37,2013-04-25 19:40:00,
2013-04-25 14:45:00,52.5,29.5,30.27,WNW,295,18.0,24.0,41,0.00,CLR,,0.00,WeatherDisplay:10.37,2013-04-25 19:45:00,
2013-04-25 14:50:00,52.3,26.1,30.27,WNW,293,13.0,25.0,36,0.00,CLR,,0.00,WeatherDisplay:10.37,2013-04-25 19:50:00,
2013-04-25 14:55:00,52.6,27.0,30.27,WNW,287,23.0,35.0,37,0.00,CLR,,0.00,WeatherDisplay:10.37,2013-04-25 19:55:00,
2013-04-25 15:00:00,52.9,27.9,30.26,WNW,292,10.0,20.0,38,0.00,CLR,,0.00,WeatherDisplay:10.37,2013-04-25 20:00:00,
2013-04-25 15:05:00,53.3,28.3,30.26,WNW,294,14.0,25.0,38,0.00,CLR,,0.00,WeatherDisplay:10.37,2013-04-25 20:05:00,
2013-04-25 15:10:00,53.5,27.8,30.26,West,276,9.0,17.0,37,0.00,CLR,,0.00,WeatherDisplay:10.37,2013-04-25 20:10:00,
2013-04-25 15:20:00,53.5,25.8,30.26,WNW,289,12.0,18.0,34,0.00,CLR,,0.00,WeatherDisplay:10.37,2013-04-25 20:20:00,
2013-04-25 15:25:00,53.4,26.4,30.26,WNW,290,15.0,20.0,35,0.00,CLR,,0.00,WeatherDisplay:10.37,2013-04-25 20:25:00,
2013-04-25 15:30:00,53.2,27.6,30.26,WNW,299,13.0,20.0,37,0.00,CLR,,0.00,WeatherDisplay:10.37,2013-04-25 20:30:00,
2013-04-25 15:35:00,53.3,27.7,30.26,NW,309,13.0,17.0,37,0.00,SCT,,0.00,WeatherDisplay:10.37,2013-04-25 20:35:00,
2013-04-25 15:40:00,53.6,25.9,30.26,WNW,293,3.0,15.0,34,0.00,SCT,,0.00,WeatherDisplay:10.37,2013-04-25 20:40:00,
2013-04-25 15:50:00,53.6,27.3,30.26,West,273,8.0,18.0,36,0.00,SCT,,0.00,WeatherDisplay:10.37,2013-04-25 20:50:00,
2013-04-25 15:55:00,53.5,26.5,30.26,West,279,12.0,24.0,35,0.00,SCT,,0.00,WeatherDisplay:10.37,2013-04-25 20:55:00,
2013-04-25 16:00:00,53.0,28.0,30.26,West,271,7.0,20.0,38,0.00,SCT,,0.00,WeatherDisplay:10.37,2013-04-25 21:00:00,
2013-04-25 16:05:00,53.2,28.2,30.26,West,263,9.0,20.0,38,0.00,SCT,,0.00,WeatherDisplay:10.37,2013-04-25 21:05:00,
2013-04-25 16:10:00,53.8,28.1,30.26,WNW,288,7.0,17.0,37,0.00,SCT,,0.00,WeatherDisplay:10.37,2013-04-25 21:10:00,
2013-04-25 16:15:00,53.8,28.8,30.26,WNW,302,7.0,18.0,38,0.00,SCT,,0.00,WeatherDisplay:10.37,2013-04-25 21:15:00,
2013-04-25 16:20:00,53.6,26.6,30.26,WNW,289,13.0,25.0,35,0.00,SCT,,0.00,WeatherDisplay:10.37,2013-04-25 21:20:00,
2013-04-25 16:25:00,53.5,25.8,30.26,WNW,296,8.0,23.0,34,0.00,SCT,,0.00,WeatherDisplay:10.37,2013-04-25 21:25:00,
2013-04-25 16:30:00,53.5,26.5,30.26,NW,304,12.0,18.0,35,0.00,SCT,,0.00,WeatherDisplay:10.37,2013-04-25 21:30:00,
2013-04-25 16:35:00,53.8,27.4,30.26,WNW,295,10.0,17.0,36,0.00,CLR,,0.00,WeatherDisplay:10.37,2013-04-25 21:35:00,
2013-04-25 16:40:00,53.6,27.9,30.27,WNW,289,10.0,18.0,37,0.00,CLR,,0.00,WeatherDisplay:10.37,2013-04-25 21:40:00,
2013-04-25 16:45:00,53.5,27.8,30.27,West,280,7.0,17.0,37,0.00,CLR,,0.00,WeatherDisplay:10.37,2013-04-25 21:45:00,
2013-04-25 16:50:00,53.8,28.1,30.27,WNW,284,6.0,17.0,37,0.00,CLR,,0.00,WeatherDisplay:10.37,2013-04-25 21:50:00,
2013-04-25 17:00:00,54.1,27.7,30.26,WNW,300,8.0,18.0,36,0.00,CLR,,0.00,WeatherDisplay:10.37,2013-04-25 22:00:00,
2013-04-25 17:05:00,53.7,26.7,30.27,NW,310,9.0,17.0,35,0.00,CLR,,0.00,WeatherDisplay:10.37,2013-04-25 22:05:00,
2013-04-25 17:10:00,53.8,26.1,30.27,WNW,301,8.0,18.0,34,0.00,CLR,,0.00,WeatherDisplay:10.37,2013-04-25 22:10:00,
2013-04-25 17:15:00,53.9,26.8,30.27,WNW,282,8.0,18.0,35,0.00,CLR,,0.00,WeatherDisplay:10.37,2013-04-25 22:15:00,
2013-04-25 17:20:00,53.6,26.6,30.27,West,281,18.0,21.0,35,0.00,CLR,,0.00,WeatherDisplay:10.37,2013-04-25 22:20:00,
2013-04-25 17:30:00,53.6,26.6,30.27,WNW,291,15.0,20.0,35,0.00,CLR,,0.00,WeatherDisplay:10.37,2013-04-25 22:30:00,
2013-04-25 17:35:00,53.8,27.4,30.27,WNW,290,12.0,12.0,36,0.00,CLR,,0.00,WeatherDisplay:10.37,2013-04-25 22:35:00,
2013-04-25 17:40:00,53.5,27.2,30.27,West,279,8.0,15.0,36,0.00,CLR,,0.00,WeatherDisplay:10.37,2013-04-25 22:40:00,
2013-04-25 17:45:00,53.8,27.4,30.27,West,281,12.0,17.0,36,0.00,CLR,,0.00,WeatherDisplay:10.37,2013-04-25 22:45:00,
2013-04-25 17:50:00,53.9,28.2,30.27,WNW,287,9.0,11.0,37,0.00,CLR,,0.00,WeatherDisplay:10.37,2013-04-25 22:50:00,
2013-04-25 17:55:00,54.0,27.6,30.27,WNW,292,15.0,20.0,36,0.00,SCT,,0.00,WeatherDisplay:10.37,2013-04-25 22:55:00,
2013-04-25 18:00:00,53.6,27.9,30.27,WNW,291,10.0,15.0,37,0.00,SCT,,0.00,WeatherDisplay:10.37,2013-04-25 23:00:00,
2013-04-25 18:05:00,53.5,27.8,30.27,WNW,294,7.0,17.0,37,0.00,SCT,,0.00,WeatherDisplay:10.37,2013-04-25 23:05:00,
2013-04-25 18:15:00,53.6,28.6,30.27,WNW,301,6.0,6.0,38,0.00,CLR,,0.00,WeatherDisplay:10.37,2013-04-25 23:15:00,
2013-04-25 18:20:00,53.6,28.0,30.27,WNW,293,13.0,13.0,37,0.00,CLR,,0.00,WeatherDisplay:10.37,2013-04-25 23:20:00,
2013-04-25 18:30:00,53.6,27.9,30.27,WNW,289,9.0,11.0,37,0.00,CLR,,0.00,WeatherDisplay:10.37,2013-04-25 23:30:00,
2013-04-25 18:35:00,53.3,28.3,30.27,West,281,7.0,11.0,38,0.00,CLR,,0.00,WeatherDisplay:10.37,2013-04-25 23:35:00,
2013-04-25 18:40:00,53.2,28.9,30.27,WNW,283,5.0,8.0,39,0.00,CLR,,0.00,WeatherDisplay:10.37,2013-04-25 23:40:00,
2013-04-25 18:45:00,53.2,28.9,30.27,WNW,292,2.0,12.0,39,0.00,CLR,,0.00,WeatherDisplay:10.37,2013-04-25 23:45:00,
2013-04-25 18:50:00,53.2,27.6,30.27,WNW,301,2.0,6.0,37,0.00,CLR,,0.00,WeatherDisplay:10.37,2013-04-25 23:50:00,
2013-04-25 18:55:00,53.1,28.1,30.27,WNW,293,0.0,5.0,38,0.00,CLR,,0.00,WeatherDisplay:10.37,2013-04-25 23:55:00,
2013-04-25 19:00:00,52.9,28.5,30.27,WNW,295,5.0,6.0,39,0.00,CLR,,0.00,WeatherDisplay:10.37,2013-04-26 00:00:00,
2013-04-25 19:05:00,52.5,30.1,30.27,WNW,301,3.0,6.0,42,0.00,CLR,,0.00,WeatherDisplay:10.37,2013-04-26 00:05:00,
2013-04-25 19:10:00,52.2,28.0,30.27,West,273,1.0,8.0,39,0.00,CLR,,0.00,WeatherDisplay:10.37,2013-04-26 00:10:00,
2013-04-25 19:15:00,51.9,28.9,30.27,West,275,1.0,5.0,41,0.00,CLR,,0.00,WeatherDisplay:10.37,2013-04-26 00:15:00,
2013-04-25 19:20:00,51.7,28.1,30.27,NW,312,2.0,8.0,40,0.00,CLR,,0.00,WeatherDisplay:10.37,2013-04-26 00:20:00,
2013-04-25 19:25:00,51.4,29.1,30.27,NW,321,0.0,6.0,42,0.00,CLR,,0.00,WeatherDisplay:10.37,2013-04-26 00:25:00,
2013-04-25 19:30:00,51.1,29.4,30.27,NW,311,0.0,2.0,43,0.00,CLR,,0.00,WeatherDisplay:10.37,2013-04-26 00:30:00,
2013-04-25 19:35:00,50.7,29.6,30.27,WNW,284,0.0,2.0,44,0.00,CLR,,0.00,WeatherDisplay:10.37,2013-04-26 00:35:00,
2013-04-25 19:40:00,50.4,29.8,30.27,WNW,284,0.0,2.0,45,0.00,CLR,,0.00,WeatherDisplay:10.37,2013-04-26 00:40:00,
2013-04-25 19:45:00,49.9,29.4,30.27,WNW,284,0.0,0.0,45,0.00,CLR,,0.00,WeatherDisplay:10.37,2013-04-26 00:45:00,
2013-04-25 19:50:00,49.5,29.6,30.28,WNW,284,0.0,0.0,46,0.00,CLR,,0.00,WeatherDisplay:10.37,2013-04-26 00:50:00,
2013-04-25 19:55:00,49.1,29.8,30.28,WNW,284,0.0,0.0,47,0.00,CLR,,0.00,WeatherDisplay:10.37,2013-04-26 00:55:00,
2013-04-25 20:00:00,48.8,29.5,30.28,WNW,284,0.0,0.0,47,0.00,CLR,,0.00,WeatherDisplay:10.37,2013-04-26 01:00:00,
2013-04-25 20:05:00,48.5,29.7,30.28,WNW,284,0.0,0.0,48,0.00,CLR,,0.00,WeatherDisplay:10.37,2013-04-26 01:05:00,
2013-04-25 20:10:00,48.1,29.8,30.28,WNW,284,0.0,0.0,49,0.00,CLR,,0.00,WeatherDisplay:10.37,2013-04-26 01:10:00,
2013-04-25 20:15:00,47.6,29.9,30.28,WNW,284,0.0,0.0,50,0.00,CLR,,0.00,WeatherDisplay:10.37,2013-04-26 01:15:00,
2013-04-25 20:20:00,47.2,29.9,30.29,WNW,284,0.0,0.0,51,0.00,CLR,,0.00,WeatherDisplay:10.37,2013-04-26 01:20:00,
2013-04-25 20:25:00,46.8,30.6,30.29,WNW,284,0.0,0.0,53,0.00,CLR,,0.00,WeatherDisplay:10.37,2013-04-26 01:25:00,
2013-04-25 20:30:00,46.3,30.6,30.29,WNW,284,0.0,0.0,54,0.00,CLR,,0.00,WeatherDisplay:10.37,2013-04-26 01:30:00,
2013-04-25 20:35:00,46.0,31.2,30.29,WNW,284,0.0,0.0,56,0.00,CLR,,0.00,WeatherDisplay:10.37,2013-04-26 01:35:00,
2013-04-25 20:45:00,45.2,30.4,30.29,WNW,284,0.0,0.0,56,0.00,CLR,,0.00,WeatherDisplay:10.37,2013-04-26 01:45:00,
2013-04-25 20:50:00,44.9,31.0,30.30,WNW,284,0.0,0.0,58,0.00,CLR,,0.00,WeatherDisplay:10.37,2013-04-26 01:50:00,
2013-04-25 20:55:00,44.6,31.6,30.30,WNW,284,0.0,0.0,60,0.00,CLR,,0.00,WeatherDisplay:10.37,2013-04-26 01:55:00,
2013-04-25 21:00:00,44.4,31.4,30.30,WNW,284,0.0,0.0,60,0.00,CLR,,0.00,WeatherDisplay:10.37,2013-04-26 02:00:00,
2013-04-25 21:05:00,44.1,31.1,30.30,WNW,284,0.0,0.0,60,0.00,CLR,,0.00,WeatherDisplay:10.37,2013-04-26 02:05:00,
2013-04-25 21:10:00,43.9,30.4,30.31,WNW,284,0.0,0.0,59,0.00,CLR,,0.00,WeatherDisplay:10.37,2013-04-26 02:10:00,
2013-04-25 21:15:00,43.6,30.2,30.31,WNW,284,0.0,0.0,59,0.00,CLR,,0.00,WeatherDisplay:10.37,2013-04-26 02:15:00,
2013-04-25 21:20:00,43.5,30.9,30.31,WNW,284,0.0,0.0,61,0.00,CLR,,0.00,WeatherDisplay:10.37,2013-04-26 02:20:00,
2013-04-25 21:25:00,43.4,31.2,30.31,WNW,284,0.0,0.0,62,0.00,CLR,,0.00,WeatherDisplay:10.37,2013-04-26 02:25:00,
2013-04-25 21:30:00,43.3,31.9,30.31,WNW,284,0.0,0.0,64,0.00,CLR,,0.00,WeatherDisplay:10.37,2013-04-26 02:30:00,
2013-04-25 21:35:00,43.1,31.4,30.31,WNW,284,0.0,0.0,63,0.00,CLR,,0.00,WeatherDisplay:10.37,2013-04-26 02:35:00,
2013-04-25 21:40:00,42.9,31.5,30.31,WNW,284,0.0,0.0,64,0.00,CLR,,0.00,WeatherDisplay:10.37,2013-04-26 02:40:00,
2013-04-25 21:45:00,42.6,31.7,30.31,WNW,284,0.0,0.0,65,0.00,CLR,,0.00,WeatherDisplay:10.37,2013-04-26 02:45:00,
2013-04-25 21:50:00,42.5,31.9,30.31,WNW,284,0.0,0.0,66,0.00,CLR,,0.00,WeatherDisplay:10.37,2013-04-26 02:50:00,
2013-04-25 21:55:00,42.3,31.7,30.31,WNW,284,0.0,0.0,66,0.00,CLR,,0.00,WeatherDisplay:10.37,2013-04-26 02:55:00,
2013-04-25 22:00:00,42.1,31.6,30.31,WNW,284,0.0,0.0,66,0.00,CLR,,0.00,WeatherDisplay:10.37,2013-04-26 03:00:00,
2013-04-25 22:05:00,41.9,31.7,30.31,WNW,284,0.0,0.0,67,0.00,CLR,,0.00,WeatherDisplay:10.37,2013-04-26 03:05:00,
2013-04-25 22:10:00,41.8,32.0,30.31,WNW,284,0.0,2.0,68,0.00,CLR,,0.00,WeatherDisplay:10.37,2013-04-26 03:10:00,
2013-04-25 22:15:00,41.8,32.4,30.31,WNW,284,0.0,0.0,69,0.00,CLR,,0.00,WeatherDisplay:10.37,2013-04-26 03:15:00,
2013-04-25 22:20:00,41.6,32.2,30.32,WNW,284,0.0,0.0,69,0.00,CLR,,0.00,WeatherDisplay:10.37,2013-04-26 03:20:00,
2013-04-25 22:25:00,41.5,32.1,30.32,WNW,284,0.0,0.0,69,0.00,CLR,,0.00,WeatherDisplay:10.37,2013-04-26 03:25:00,
2013-04-25 22:30:00,41.3,32.2,30.31,WNW,284,0.0,0.0,70,0.00,CLR,,0.00,WeatherDisplay:10.37,2013-04-26 03:30:00,
2013-04-25 22:35:00,41.1,32.1,30.31,WNW,284,0.0,0.0,70,0.00,CLR,,0.00,WeatherDisplay:10.37,2013-04-26 03:35:00,
2013-04-25 22:40:00,40.9,32.2,30.31,WNW,284,0.0,0.0,71,0.00,CLR,,0.00,WeatherDisplay:10.37,2013-04-26 03:40:00,
2013-04-25 22:45:00,40.8,32.5,30.31,WNW,284,0.0,0.0,72,0.00,CLR,,0.00,WeatherDisplay:10.37,2013-04-26 03:45:00,
2013-04-25 22:50:00,40.6,32.6,30.31,WNW,284,0.0,0.0,73,0.00,CLR,,0.00,WeatherDisplay:10.37,2013-04-26 03:50:00,
2013-04-25 22:55:00,40.5,32.5,30.31,WNW,284,0.0,0.0,73,0.00,CLR,,0.00,WeatherDisplay:10.37,2013-04-26 03:55:00,
2013-04-25 23:00:00,40.4,32.4,30.31,WNW,284,0.0,0.0,73,0.00,CLR,,0.00,WeatherDisplay:10.37,2013-04-26 04:00:00,
2013-04-25 23:05:00,40.3,32.7,30.31,WNW,284,0.0,0.0,74,0.00,CLR,,0.00,WeatherDisplay:10.37,2013-04-26 04:05:00,
2013-04-25 23:10:00,40.2,32.6,30.31,WNW,284,0.0,0.0,74,0.00,CLR,,0.00,WeatherDisplay:10.37,2013-04-26 04:10:00,
2013-04-25 23:15:00,40.2,32.9,30.31,WNW,284,0.0,0.0,75,0.00,CLR,,0.00,WeatherDisplay:10.37,2013-04-26 04:15:00,
2013-04-25 23:20:00,40.2,32.6,30.31,WNW,284,0.0,0.0,74,0.00,CLR,,0.00,WeatherDisplay:10.37,2013-04-26 04:20:00,
2013-04-25 23:25:00,40.2,32.9,30.31,WNW,284,0.0,0.0,75,0.00,CLR,,0.00,WeatherDisplay:10.37,2013-04-26 04:25:00,
2013-04-25 23:30:00,40.1,33.1,30.31,WNW,284,0.0,0.0,76,0.00,CLR,,0.00,WeatherDisplay:10.37,2013-04-26 04:30:00,
2013-04-25 23:35:00,40.1,33.1,30.31,WNW,284,0.0,0.0,76,0.00,CLR,,0.00,WeatherDisplay:10.37,2013-04-26 04:35:00,
2013-04-25 23:40:00,39.9,32.9,30.31,WNW,284,0.0,0.0,76,0.00,CLR,,0.00,WeatherDisplay:10.37,2013-04-26 04:40:00,
2013-04-25 23:45:00,39.9,32.9,30.31,WNW,284,0.0,0.0,76,0.00,CLR,,0.00,WeatherDisplay:10.37,2013-04-26 04:45:00,
2013-04-25 23:50:00,39.8,32.8,30.31,WNW,284,0.0,0.0,76,0.00,CLR,,0.00,WeatherDisplay:10.37,2013-04-26 04:50:00,
2013-04-25 23:55:00,39.6,33.0,30.31,WNW,284,0.0,0.0,77,0.00,CLR,,0.00,WeatherDisplay:10.37,2013-04-26 04:55:00,